Surface/Precipitation History
02/04/2016 19:57  to  2/5/2016 19:57
Change End Date:
Date/Time
(MST)
Sf
Temp Chem Water Layer Surface Precipitation
Sfc Pvt Sub Frz Factor Pct Dpth DpthThk IcePct Cond Salin FI Type Intens Accum Rate
02/05/2016 19:50 Wet 35.6F - 31F 32F 5 0% 0.00 in - 0% 0 mhos 1 - None None - -
02/05/2016 19:45 Wet 35.6F - 31F 32F 5 0% 0.00 in - 0% 0 mhos 1 - None None - -
02/05/2016 19:35 Wet 35.2F - 31F 32F 5 0% 0.00 in - 0% 0 mhos 1 - None None - -
02/05/2016 19:34 Wet 35.2F - 31F 32F 5 0% 0.00 in - 0% 0 mhos 1 - None None - -
02/05/2016 19:25 Wet 35.2F - 31F 32F 5 0% 0.00 in - 0% 0 mhos 1 - None None - -
02/05/2016 19:20 Wet 34.9F - 31F 32F 5 0% 0.00 in - 0% 0 mhos 1 - None None - -
02/05/2016 19:15 Wet 34.9F - 31F 32F 5 0% 0.00 in - 0% 0 mhos 1 - None None - -
02/05/2016 19:05 Wet 35.1F - 31F 32F 5 0% 0.00 in - 0% 0 mhos 1 - None None - -
02/05/2016 19:05 Wet 35.1F - 31F 32F 5 0% 0.00 in - 0% 0 mhos 1 - None None - -
02/05/2016 18:55 Wet 34.9F - 31F 32F 5 0% 0.20 in - 0% 0 mhos 1 - None None - -
02/05/2016 18:50 Wet 34.9F - 31F 32F 5 0% 0.00 in - 0% 0 mhos 1 - None None - -
02/05/2016 18:45 Wet 35.1F - 31F 32F 5 0% 0.00 in - 0% 0 mhos 1 - None None - -
02/05/2016 18:35 Wet 35.4F - 31F 32F 5 0% 0.00 in - 0% 0 mhos 0 - None None - -
02/05/2016 18:35 Wet 35.4F - 31F 32F 5 0% 0.00 in - 0% 0 mhos 0 - None None - -
02/05/2016 18:25 Wet 36.0F - 31F 32F 5 0% 0.00 in - 0% 0 mhos 0 - None None - -
Date/Time
(MST)
Sf
Temp Chem Water Layer Surface Precipitation
Sfc Pvt Sub Frz Factor Pct Dpth DpthThk IcePct Cond Salin FI Type Intens Accum Rate
02/05/2016 18:20 Wet 36.1F - 31F 32F 5 0% 0.00 in - 0% 0 mhos 0 - None None - -
02/05/2016 18:15 Wet 36.1F - 31F 32F 5 0% 0.00 in - 0% 0 mhos 0 - None None - -
02/05/2016 18:05 Wet 36.1F - 31F 32F 5 0% 0.00 in - 0% 0 mhos 0 - None None - -
02/05/2016 18:05 Wet 36.1F - 31F 32F 5 0% 0.00 in - 0% 0 mhos 0 - None None - -
02/05/2016 17:55 Wet 36.1F - 31F 32F 5 0% 0.00 in - 0% 0 mhos 0 - None None - -
02/05/2016 17:49 Wet 36.1F - 31F 32F 5 0% 0.00 in - 0% 0 mhos 0 - None None - -
02/05/2016 17:45 Wet 36.1F - 31F 32F 5 0% 0.00 in - 0% 0 mhos 0 - None None - -
02/05/2016 17:35 Wet 36.3F - 31F 32F 5 0% 0.00 in - 0% 0 mhos 0 - None None - -
02/05/2016 17:34 Wet 36.3F - 31F 32F 5 0% 0.00 in - 0% 0 mhos 0 - None None - -
02/05/2016 17:25 Wet 37.0F - 31F 32F 5 0% 0.00 in - 0% 0 mhos 0 - None None - -
02/05/2016 17:19 Wet 37.4F - 31F 32F 5 0% 0.00 in - 0% 0 mhos 0 - None None - -
02/05/2016 17:15 Wet 37.8F - 31F 32F 5 0% 0.00 in - 0% 0 mhos 0 - None None - -
02/05/2016 17:05 Wet 38.7F - 31F 32F 5 0% 0.00 in - 0% 0 mhos 0 - None None - -
02/05/2016 17:04 Wet 38.7F - 31F 32F 5 0% 0.00 in - 0% 0 mhos 0 - None None - -
02/05/2016 16:55 Wet 39.9F - 31F 32F 5 0% 0.00 in - 0% 0 mhos 0 - None None - -
Date/Time
(MST)
Sf
Temp Chem Water Layer Surface Precipitation
Sfc Pvt Sub Frz Factor Pct Dpth DpthThk IcePct Cond Salin FI Type Intens Accum Rate
02/05/2016 16:49 Wet 40.5F - 31F 32F 5 0% 0.00 in - 0% 0 mhos 0 - None None - -
02/05/2016 16:45 Wet 40.8F - 31F 32F 5 0% 0.00 in - 0% 0 mhos 0 - None None - -
02/05/2016 16:35 Wet 41.5F - 31F 32F 5 0% 0.00 in - 0% 0 mhos 0 - None None - -
02/05/2016 16:34 Wet 41.5F - 31F 32F 5 0% 0.00 in - 0% 0 mhos 0 - None None - -
02/05/2016 16:24 Wet 42.4F - 31F 32F 5 0% 0.00 in - 0% 0 mhos 0 - None None - -
02/05/2016 16:19 Wet 42.8F - 31F 32F 5 0% 0.00 in - 0% 0 mhos 0 - None None - -
02/05/2016 16:14 Wet 43.0F - 31F 32F 5 0% 0.00 in - 0% 0 mhos 0 - None None - -
02/05/2016 16:04 Wet 43.7F - 31F 32F 5 0% 0.00 in - 0% 0 mhos 0 - None None - -
02/05/2016 16:04 Wet 43.7F - 31F 32F 5 0% 0.00 in - 0% 0 mhos 0 - None None - -
02/05/2016 15:54 Wet 43.3F - 31F 32F 5 0% 0.00 in - 0% 0 mhos 0 - None None - -
02/05/2016 15:49 Wet 44.8F - 31F 32F 5 0% 0.00 in - 0% 0 mhos 0 - None None - -
02/05/2016 15:44 Wet 45.0F - 31F 32F 5 0% 0.00 in - 0% 0 mhos 0 - None None - -
02/05/2016 15:34 Wet 45.0F - 31F 32F 5 0% 0.00 in - 0% 0 mhos 0 - None None - -
02/05/2016 15:34 Wet 45.0F - 31F 32F 5 0% 0.00 in - 0% 0 mhos 0 - None None - -
02/05/2016 15:24 Wet 46.0F - 31F 32F 5 0% 0.00 in - 0% 0 mhos 0 - None None - -
Date/Time
(MST)
Sf
Temp Chem Water Layer Surface Precipitation
Sfc Pvt Sub Frz Factor Pct Dpth DpthThk IcePct Cond Salin FI Type Intens Accum Rate
02/05/2016 15:20 Wet 46.2F - 31F 32F 5 0% 0.00 in - 0% 0 mhos 0 - None None - -
02/05/2016 15:14 Wet 46.4F - 31F 32F 5 0% 0.00 in - 0% 0 mhos 0 - None None - -
02/05/2016 15:04 Wet 46.2F - 31F 32F 5 0% 0.00 in - 0% 0 mhos 0 - None None - -
02/05/2016 15:04 Wet 46.2F - 31F 32F 5 0% 0.00 in - 0% 0 mhos 0 - None None - -
02/05/2016 14:54 Wet 47.1F - 31F 32F 5 0% 0.00 in - 0% 0 mhos 0 - None None - -
02/05/2016 14:49 Wet 47.3F - 31F 32F 5 0% 0.00 in - 0% 0 mhos 0 - None None - -
02/05/2016 14:44 Wet 47.5F - 31F 32F 5 0% 0.00 in - 0% 0 mhos 0 - None None - -
02/05/2016 14:35 Wet 48.2F - 31F 32F 5 0% 0.00 in - 0% 0 mhos 0 - None None - -
02/05/2016 14:34 Wet 48.2F - 31F 32F 5 0% 0.00 in - 0% 0 mhos 0 - None None - -
02/05/2016 14:24 Wet 48.2F - 31F 32F 5 0% 0.00 in - 0% 0 mhos 0 - None None - -
02/05/2016 14:19 Wet 48.2F - 31F 32F 5 0% 0.00 in - 0% 0 mhos 0 - None None - -
02/05/2016 14:14 Wet 48.0F - 31F 32F 5 0% 0.00 in - 0% 0 mhos 0 - None None - -
02/05/2016 14:05 Wet 48.6F - 31F 32F 5 0% 0.00 in - 0% 0 mhos 0 - None None - -
02/05/2016 14:04 Wet 48.6F - 31F 32F 5 0% 0.00 in - 0% 0 mhos 0 - None None - -
02/05/2016 13:53 Wet 48.9F - 31F 32F 5 0% 0.00 in - 0% 0 mhos 0 - None None - -
Date/Time
(MST)
Sf
Temp Chem Water Layer Surface Precipitation
Sfc Pvt Sub Frz Factor Pct Dpth DpthThk IcePct Cond Salin FI Type Intens Accum Rate
02/05/2016 13:50 Wet 48.4F - 31F 32F 5 0% 0.00 in - 0% 0 mhos 0 - None None - -
02/05/2016 13:43 Wet 48.0F - 31F 32F 5 0% 0.00 in - 0% 0 mhos 0 - None None - -
02/05/2016 13:35 Wet 46.9F - 31F 32F 5 0% 0.00 in - 0% 0 mhos 0 - None None - -
02/05/2016 13:33 Wet 46.9F - 31F 32F 5 0% 0.00 in - 0% 0 mhos 0 - None None - -
02/05/2016 13:23 Wet 46.4F - 31F 32F 5 0% 0.00 in - 0% 0 mhos 0 - Yes - - -
02/05/2016 13:20 Wet 46.2F - 31F 32F 5 0% 0.00 in - 0% 0 mhos 0 - Yes - - -
02/05/2016 13:13 Wet 47.1F - 31F 32F 5 0% 0.00 in - 0% 0 mhos 0 - Yes - - -
02/05/2016 13:05 Wet 49.8F - 31F 32F 5 0% 0.00 in - 0% 0 mhos 0 - Yes - - -
02/05/2016 13:03 Wet 49.8F - 31F 32F 5 0% 0.00 in - 0% 0 mhos 0 - Yes - - -
02/05/2016 12:53 Wet 49.1F - 31F 32F 5 0% 0.00 in - 0% 0 mhos 0 - Yes - - -
02/05/2016 12:50 Wet 48.9F - 31F 32F 5 0% 0.00 in - 0% 0 mhos 0 - Yes - - -
02/05/2016 12:43 Wet 48.9F - 31F 32F 5 0% 0.00 in - 0% 0 mhos 0 - Yes - - -
02/05/2016 12:35 Wet 47.7F - 31F 32F 5 0% 0.00 in - 0% 0 mhos 1 - Yes - - -
02/05/2016 12:33 Wet 47.5F - 31F 32F 5 0% 0.00 in - 0% 0 mhos 1 - Yes - - -
02/05/2016 12:23 Wet 45.9F - 31F 32F 5 0% 0.00 in - 0% 0 mhos 3 - Yes - - -
Date/Time
(MST)
Sf
Temp Chem Water Layer Surface Precipitation
Sfc Pvt Sub Frz Factor Pct Dpth DpthThk IcePct Cond Salin FI Type Intens Accum Rate
02/05/2016 12:20 Wet 45.1F - 31F 32F 5 0% 0.00 in - 0% 0 mhos 5 - Yes - - -
02/05/2016 12:13 Wet 44.4F - 31F 32F 5 0% 0.00 in - 0% 0 mhos 15 - Yes - - -
02/05/2016 12:05 Wet 43.2F - 31F 32F 5 0% 0.00 in - 0% 1 mhos 46 - Yes - - -
02/05/2016 12:03 Wet 42.4F - 31F 32F 5 0% 0.00 in - 0% 1 mhos 53 - Yes - - -
02/05/2016 11:53 Wet 41.0F - 31F 32F 5 0% 0.00 in - 0% 1 mhos 88 - Yes - - -
02/05/2016 11:49 Wet 41.0F - 31F 32F 5 0% 0.00 in - 0% 1 mhos 97 - Yes - - -
02/05/2016 11:43 Wet 41.9F - 31F 32F 5 0% 0.00 in - 0% 1 mhos 129 - Yes - - -
02/05/2016 11:34 Wet 39.2F - 31F 32F 5 1% 0.00 in - 0% 2 mhos 185 - Yes - - -
02/05/2016 11:33 Wet 38.7F - 31F 32F 5 1% 0.00 in - 0% 2 mhos 197 - Yes - - -
02/05/2016 11:23 Wet 37.9F - 31F 32F 30 1% 0.00 in - 0% 3 mhos 304 - Yes - - -
02/05/2016 11:19 Wet 37.8F - 31F 32F 25 1% 0.00 in - 0% 3 mhos 326 - Yes - - -
02/05/2016 11:13 Wet 36.3F - 31F 32F 25 1% 0.00 in - 0% 4 mhos 389 - Yes - - -
02/05/2016 11:05 Wet 36.1F - 31F 32F 70 1% 0.00 in - 0% 5 mhos 436 - Yes - - -
02/05/2016 11:03 Wet 36.1F - 31F 32F 45 2% 0.00 in - 0% 5 mhos 470 - Yes - - -
02/05/2016 10:52 Wet 35.8F - 31F 32F 90 2% 0.00 in - 0% 5 mhos 523 - Yes - - -
Date/Time
(MST)
Sf
Temp Chem Water Layer Surface Precipitation
Sfc Pvt Sub Frz Factor Pct Dpth DpthThk IcePct Cond Salin FI Type Intens Accum Rate
02/05/2016 10:50 Wet 36.0F - 31F 32F 90 2% 0.00 in - 0% 6 mhos 530 - Yes - - -
02/05/2016 10:42 Wet 35.4F - 31F 32F 95 2% 0.00 in - 0% 5 mhos 527 - None None - -
02/05/2016 10:35 Wet 34.3F - 31F 31F 95 2% 0.00 in - 0% 6 mhos 560 - Yes - - -
02/05/2016 10:32 Wet 34.0F - 31F 31F 95 2% 0.00 in - 0% 6 mhos 567 - Yes - - -
02/05/2016 10:22 Wet 33.8F - 31F 31F 95 2% 0.00 in - 0% 6 mhos 575 - Yes - - -
02/05/2016 10:20 Wet 34.2F - 31F 32F 95 2% 0.00 in - 0% 5 mhos 542 - Yes - - -
02/05/2016 10:12 Wet 33.4F - 31F 31F 95 2% 0.00 in - 0% 7 mhos 738 - Yes - - -
02/05/2016 10:05 Chemically Wet 31.8F - 31F 31F 95 3% 0.00 in - 0% 8 mhos 800 - None None - -
02/05/2016 10:02 Chemically Wet 31.5F - 31F 31F 95 3% 0.00 in - 0% 8 mhos 853 - Yes - - -
02/05/2016 09:52 Chemically Wet 30.4F - 31F 31F 95 3% - - 77% 7 mhos 786 - Yes - - -
02/05/2016 09:50 Chemically Wet 30.2F - 31F 31F 95 3% - - 79% 7 mhos 776 - Yes - - -
02/05/2016 09:42 Chemically Wet 29.8F - 31F 31F 95 2% - - 85% 6 mhos 706 - Yes - - -
02/05/2016 09:35 Ice Warning 29.5F - 31F 31F 95 2% - - 86% 6 mhos 719 - Yes - - -
02/05/2016 09:32 Ice Warning 29.1F - 31F 31F 95 2% - - 88% 6 mhos 711 - None None - -
02/05/2016 09:22 Ice Warning 28.6F - 31F 31F 95 2% - - 91% 5 mhos 601 - None None - -
Date/Time
(MST)
Sf
Temp Chem Water Layer Surface Precipitation
Sfc Pvt Sub Frz Factor Pct Dpth DpthThk IcePct Cond Salin FI Type Intens Accum Rate
02/05/2016 09:20 Ice Warning 28.4F - 31F 31F 95 2% - - 92% 4 mhos 589 - None None - -
02/05/2016 09:12 Ice Warning 28.0F - 31F 31F 95 2% - - 92% 4 mhos 619 - None None - -
02/05/2016 09:05 Ice Warning 27.3F - 31F 32F 95 1% - - 95% 3 mhos 447 - None None - -
02/05/2016 09:02 Ice Warning 27.3F - 31F 32F 95 2% - - 95% 3 mhos 469 - None None - -
02/05/2016 08:52 Ice Warning 26.6F - 31F 32F 95 2% - - 95% 3 mhos 482 - None None - -
02/05/2016 08:50 Ice Warning 26.4F - 31F 32F 95 2% - - 95% 3 mhos 470 - None None - -
02/05/2016 08:42 Ice Warning 26.1F - 31F 32F 95 1% - - 96% 2 mhos 398 - None None - -
02/05/2016 08:34 Ice Warning 25.7F - 31F 32F 95 1% - - 96% 2 mhos 405 - None None - -
02/05/2016 08:32 Ice Warning 25.5F - 31F 32F 95 1% - - 96% 3 mhos 449 - None None - -
02/05/2016 08:22 Ice Warning 25.2F - 31F 32F 95 2% - - 96% 3 mhos 466 - None None - -
02/05/2016 08:19 Ice Warning 25.0F - 31F 32F 95 2% - - 96% 3 mhos 467 - None None - -
02/05/2016 08:12 Ice Warning 24.8F - 31F 32F 95 1% - - 96% 2 mhos 432 - None None - -
02/05/2016 08:04 Ice Warning 24.6F - 31F 32F 95 2% - - 96% 3 mhos 468 - None None - -
02/05/2016 08:02 Ice Warning 24.6F - 31F 32F 95 2% - - 96% 3 mhos 458 - None None - -
02/05/2016 07:52 Ice Warning 24.3F - 31F 32F 95 1% - - 97% 2 mhos 438 - None None - -
Date/Time
(MST)
Sf
Temp Chem Water Layer Surface Precipitation
Sfc Pvt Sub Frz Factor Pct Dpth DpthThk IcePct Cond Salin FI Type Intens Accum Rate
02/05/2016 07:49 Ice Warning 24.3F - 31F 32F 95 1% - - 96% 2 mhos 439 - None None - -
02/05/2016 07:42 Ice Warning 24.3F - 31F 32F 95 1% - - 96% 2 mhos 445 - None None - -
02/05/2016 07:34 Ice Warning 24.1F - 31F 32F 95 1% - - 97% 2 mhos 432 - None None - -
02/05/2016 07:32 Ice Warning 24.1F - 31F 32F 95 1% - - 97% 2 mhos 423 - None None - -
02/05/2016 07:22 Ice Warning 24.3F - 31F 32F 95 1% - - 97% 2 mhos 410 - None None - -
02/05/2016 07:19 Ice Warning 24.3F - 31F 32F 95 1% - - 97% 2 mhos 412 - None None - -
02/05/2016 07:12 Ice Warning 24.1F - 31F 32F 95 1% - - 97% 2 mhos 378 - None None - -
02/05/2016 07:05 Ice Warning 23.9F - 31F 32F 95 1% - - 97% 2 mhos 405 - None None - -
02/05/2016 07:02 Ice Warning 23.9F - 31F 32F 95 1% - - 97% 2 mhos 388 - None None - -
02/05/2016 06:52 Ice Warning 23.5F - 31F 32F 95 1% - - 97% 2 mhos 381 - None None - -
02/05/2016 06:50 Ice Warning 23.7F - 31F 32F 95 1% - - 97% 2 mhos 379 - None None - -
02/05/2016 06:42 Ice Warning 23.5F - 31F 32F 95 1% - - 97% 2 mhos 391 - None None - -
02/05/2016 06:35 Ice Warning 23.5F - 31F 32F 95 1% - - 97% 2 mhos 427 - None None - -
02/05/2016 06:32 Ice Warning 23.5F - 31F 32F 95 1% - - 97% 2 mhos 433 - None None - -
02/05/2016 06:22 Ice Warning 23.5F - 31F 32F 95 1% - - 97% 2 mhos 434 - None None - -
Date/Time
(MST)
Sf
Temp Chem Water Layer Surface Precipitation
Sfc Pvt Sub Frz Factor Pct Dpth DpthThk IcePct Cond Salin FI Type Intens Accum Rate
02/05/2016 06:20 Ice Warning 23.5F - 31F 32F 95 1% - - 97% 2 mhos 434 - None None - -
02/05/2016 06:12 Ice Warning 23.4F - 31F 32F 95 1% - - 97% 2 mhos 436 - None None - -
02/05/2016 06:05 Ice Warning 23.4F - 31F 32F 95 1% - - 97% 2 mhos 408 - None None - -
02/05/2016 06:02 Ice Warning 23.4F - 31F 32F 95 1% - - 97% 2 mhos 414 - None None - -
02/05/2016 05:52 Ice Warning 23.0F - 31F 32F 95 2% - - 97% 2 mhos 450 - None None - -
02/05/2016 05:50 Ice Warning 23.0F - 31F 32F 95 1% - - 97% 2 mhos 447 - None None - -
02/05/2016 05:42 Ice Warning 22.6F - 31F 32F 95 1% - - 97% 2 mhos 441 - None None - -
02/05/2016 05:34 Ice Warning 22.6F - 31F 32F 95 1% - - 97% 2 mhos 437 - None None - -
02/05/2016 05:32 Ice Warning 22.6F - 31F 32F 95 1% - - 97% 2 mhos 434 - None None - -
02/05/2016 05:22 Ice Warning 22.6F - 31F 32F 95 1% - - 97% 2 mhos 428 - None None - -
02/05/2016 05:20 Ice Warning 22.6F - 31F 32F 95 1% - - 97% 2 mhos 405 - None None - -
02/05/2016 05:11 Ice Warning 22.5F - 31F 32F 95 1% - - 97% 2 mhos 400 - None None - -
02/05/2016 05:05 Ice Warning 22.5F - 31F 32F 95 1% - - 97% 2 mhos 394 - None None - -
02/05/2016 05:01 Ice Warning 22.5F - 31F 32F 95 1% - - 97% 2 mhos 395 - None None - -
02/05/2016 04:51 Ice Warning 22.3F - 31F 32F 95 1% - - 97% 2 mhos 389 - None None - -
Date/Time
(MST)
Sf
Temp Chem Water Layer Surface Precipitation
Sfc Pvt Sub Frz Factor Pct Dpth DpthThk IcePct Cond Salin FI Type Intens Accum Rate
02/05/2016 04:50 Ice Warning 22.3F - 31F 32F 95 1% - - 97% 2 mhos 376 - None None - -
02/05/2016 04:41 Ice Warning 21.9F - 31F 32F 95 1% - - 97% 2 mhos 384 - None None - -
02/05/2016 04:34 Ice Warning 21.9F - 31F 32F 95 1% - - 98% 2 mhos 370 - None None - -
02/05/2016 04:31 Ice Warning 21.7F - 31F 32F 95 1% - - 98% 2 mhos 368 - None None - -
02/05/2016 04:21 Ice Warning 21.4F - 31F 32F 95 1% - - 98% 2 mhos 378 - None None - -
02/05/2016 04:20 Ice Warning 21.4F - 31F 32F 95 1% - - 98% 2 mhos 370 - None None - -
02/05/2016 04:11 Ice Warning 21.0F - 31F 32F 95 1% - - 98% 1 mhos 371 - None None - -
02/05/2016 04:05 Ice Warning 20.5F - 31F 32F 95 1% - - 98% 1 mhos 370 - None None - -
02/05/2016 04:01 Ice Warning 20.5F - 31F 32F 95 1% - - 98% 2 mhos 398 - None None - -
02/05/2016 03:51 Ice Warning 20.5F - 31F 32F 95 1% - - 98% 1 mhos 372 - None None - -
02/05/2016 03:50 Ice Warning 20.5F - 31F 32F 95 1% - - 98% 1 mhos 368 - None None - -
02/05/2016 03:41 Ice Warning 20.7F - 31F 32F 95 1% - - 98% 1 mhos 368 - None None - -
02/05/2016 03:35 Ice Warning 21.0F - 31F 32F 95 1% - - 98% 2 mhos 384 - None None - -
02/05/2016 03:31 Ice Warning 21.0F - 31F 32F 95 1% - - 98% 2 mhos 375 - None None - -
02/05/2016 03:21 Ice Warning 21.0F - 31F 32F 95 1% - - 98% 1 mhos 357 - None None - -
Date/Time
(MST)
Sf
Temp Chem Water Layer Surface Precipitation
Sfc Pvt Sub Frz Factor Pct Dpth DpthThk IcePct Cond Salin FI Type Intens Accum Rate
02/05/2016 03:20 Ice Warning 20.8F - 31F 32F 95 1% - - 98% 1 mhos 360 - None None - -
02/05/2016 03:11 Ice Warning 20.7F - 31F 32F 95 1% - - 98% 1 mhos 348 - None None - -
02/05/2016 03:05 Ice Warning 21.0F - 31F 32F 95 1% - - 98% 2 mhos 375 - None None - -
02/05/2016 03:01 Ice Warning 21.2F - 31F 32F 95 1% - - 98% 1 mhos 340 - None None - -
02/05/2016 02:51 Ice Warning 21.7F - 31F 32F 95 1% - - 98% 1 mhos 327 - None None - -
02/05/2016 02:50 Ice Warning 21.7F - 31F 32F 95 1% - - 98% 1 mhos 327 - None None - -
02/05/2016 02:41 Ice Warning 22.1F - 31F 32F 95 1% - - 98% 1 mhos 309 - None None - -
02/05/2016 02:35 Ice Warning 22.1F - 31F 32F 95 1% - - 98% 1 mhos 285 - None None - -
02/05/2016 02:31 Ice Warning 22.1F - 31F 32F 95 1% - - 98% 1 mhos 274 - None None - -
02/05/2016 02:21 Ice Warning 21.9F - 31F 32F 95 1% - - 98% 1 mhos 281 - None None - -
02/05/2016 02:20 Ice Warning 21.9F - 31F 32F 95 1% - - 98% 1 mhos 283 - None None - -
02/05/2016 02:11 Ice Warning 22.1F - 31F 32F 95 1% - - 98% 1 mhos 241 - None None - -
02/05/2016 02:05 Ice Warning 22.5F - 31F 32F 95 1% - - 98% 1 mhos 223 - None None - -
02/05/2016 02:01 Ice Warning 22.6F - 31F 32F 95 1% - - 98% 1 mhos 221 - None None - -
02/05/2016 01:51 Ice Warning 22.5F - 31F 32F 95 1% - - 98% 1 mhos 222 - None None - -
Date/Time
(MST)
Sf
Temp Chem Water Layer Surface Precipitation
Sfc Pvt Sub Frz Factor Pct Dpth DpthThk IcePct Cond Salin FI Type Intens Accum Rate
02/05/2016 01:50 Ice Warning 22.5F - 31F 32F 95 1% - - 98% 1 mhos 219 - None None - -
02/05/2016 01:41 Ice Warning 22.5F - 31F 32F 95 1% - - 99% 1 mhos 213 - None None - -
02/05/2016 01:35 Ice Warning 22.3F - 31F 32F 95 1% - - 99% 1 mhos 220 - None None - -
02/05/2016 01:31 Ice Warning 21.9F - 31F 32F 95 1% - - 99% 1 mhos 209 - None None - -
02/05/2016 01:21 Ice Warning 21.7F - 31F 32F 95 1% - - 99% 1 mhos 208 - None None - -
02/05/2016 01:20 Ice Warning 21.7F - 31F 32F 95 1% - - 99% 1 mhos 213 - None None - -
02/05/2016 01:11 Ice Warning 21.9F - 31F 32F 95 1% - - 99% 1 mhos 191 - None None - -
02/05/2016 01:04 Ice Warning 22.1F - 31F 32F 95 1% - - 99% 1 mhos 187 - None None - -
02/05/2016 01:00 Ice Warning 22.3F - 31F 32F 95 1% - - 99% 1 mhos 177 - None None - -
02/05/2016 00:50 Ice Warning 22.5F - 31F 32F 95 1% - - 99% 1 mhos 191 - None None - -
02/05/2016 00:50 Ice Warning 22.3F - 31F 32F 95 1% - - 99% 1 mhos 153 - None None - -
02/05/2016 00:40 Ice Warning 22.3F - 31F 32F 95 0% - - 99% 1 mhos 123 - None None - -
02/05/2016 00:35 Ice Warning 22.3F - 31F 32F 95 0% - - 99% 1 mhos 113 - None None - -
02/05/2016 00:30 Ice Warning 22.5F - 31F 32F 95 0% - - 99% 0 mhos 108 - None None - -
02/05/2016 00:20 Ice Warning 23.0F - 31F 32F 95 0% - - 99% 0 mhos 100 - None None - -
Date/Time
(MST)
Sf
Temp Chem Water Layer Surface Precipitation
Sfc Pvt Sub Frz Factor Pct Dpth DpthThk IcePct Cond Salin FI Type Intens Accum Rate
02/05/2016 00:20 Ice Warning 23.2F - 31F 32F 95 0% - - 99% 0 mhos 97 - None None - -
02/05/2016 00:10 Ice Warning 23.4F - 31F 32F 95 0% - - 99% 0 mhos 98 - None None - -
02/05/2016 00:05 Ice Warning 23.5F - 31F 32F 95 0% - - 99% 0 mhos 97 - None None - -
02/05/2016 00:00 Ice Warning 23.5F - 31F 32F 95 0% - - 99% 0 mhos 98 - None None - -
02/04/2016 23:50 Ice Warning 24.1F - 31F 32F 95 0% - - 99% 1 mhos 97 - None None - -
02/04/2016 23:50 Ice Warning 24.1F - 31F 32F 95 0% - - 99% 1 mhos 97 - None None - -
02/04/2016 23:40 Ice Warning 24.6F - 31F 32F 95 0% - - 99% 0 mhos 92 - None None - -
02/04/2016 23:35 Ice Warning 24.8F - 31F 32F 95 0% - - 99% 0 mhos 87 - None None - -
02/04/2016 23:30 Ice Warning 25.2F - 31F 32F 95 0% - - 99% 0 mhos 88 - None None - -
02/04/2016 23:20 Ice Warning 25.2F - 31F 32F 95 0% - - 99% 0 mhos 84 - None None - -
02/04/2016 23:20 Ice Warning 25.2F - 31F 32F 95 0% - - 99% 0 mhos 84 - None None - -
02/04/2016 23:10 Ice Warning 25.3F - 31F 32F 95 0% - - 99% 0 mhos 81 - None None - -
02/04/2016 23:05 Ice Warning 25.5F - 31F 32F 95 0% - - 99% 0 mhos 80 - None None - -
02/04/2016 23:00 Ice Warning 25.7F - 31F 32F 95 0% - - 99% 0 mhos 78 - None None - -
02/04/2016 22:50 Ice Warning 25.7F - 31F 32F 95 0% - - 99% 0 mhos 77 - None None - -
Date/Time
(MST)
Sf
Temp Chem Water Layer Surface Precipitation
Sfc Pvt Sub Frz Factor Pct Dpth DpthThk IcePct Cond Salin FI Type Intens Accum Rate
02/04/2016 22:50 Ice Warning 25.7F - 31F 32F 95 0% - - 99% 0 mhos 77 - None None - -
02/04/2016 22:40 Ice Warning 25.9F - 31F 32F 95 0% - - 99% 0 mhos 76 - None None - -
02/04/2016 22:35 Ice Warning 25.9F - 31F 32F 95 0% - - 99% 0 mhos 74 - None None - -
02/04/2016 22:30 Ice Warning 25.9F - 31F 32F 95 0% - - 99% 0 mhos 73 - None None - -
02/04/2016 22:20 Ice Warning 26.4F - 31F 32F 95 0% - - 99% 0 mhos 68 - None None - -
02/04/2016 22:20 Ice Warning 26.4F - 31F 32F 95 0% - - 99% 0 mhos 68 - None None - -
02/04/2016 22:10 Ice Warning 27.0F - 31F 32F 95 0% - - 99% 0 mhos 66 - None None - -
02/04/2016 22:05 Ice Warning 27.3F - 31F 32F 95 0% - - 99% 0 mhos 64 - None None - -
02/04/2016 22:00 Ice Warning 27.5F - 31F 32F 95 0% - - 99% 0 mhos 61 - None None - -
02/04/2016 21:50 Ice Warning 27.7F - 31F 32F 95 0% - - 99% 0 mhos 61 - None None - -
02/04/2016 21:50 Ice Warning 27.7F - 31F 32F 95 0% - - 99% 0 mhos 61 - None None - -
02/04/2016 21:40 Ice Warning 27.7F - 31F 32F 95 0% - - 99% 0 mhos 59 - None None - -
02/04/2016 21:35 Ice Warning 27.9F - 31F 32F 95 0% - - 99% 0 mhos 57 - None None - -
02/04/2016 21:30 Ice Warning 28.0F - 31F 32F 95 0% - - 99% 0 mhos 56 - None None - -
02/04/2016 21:20 Ice Warning 28.4F - 31F 32F 95 0% - - 99% 0 mhos 55 - None None - -
Date/Time
(MST)
Sf
Temp Chem Water Layer Surface Precipitation
Sfc Pvt Sub Frz Factor Pct Dpth DpthThk IcePct Cond Salin FI Type Intens Accum Rate
02/04/2016 21:20 Ice Warning 28.4F - 31F 32F 95 0% - - 99% 0 mhos 55 - None None - -
02/04/2016 21:09 Ice Warning 29.1F - 31F 32F 95 0% - - 99% 0 mhos 49 - None None - -
02/04/2016 21:05 Ice Warning 29.1F - 31F 32F 95 0% - - 99% 0 mhos 49 - None None - -
02/04/2016 20:59 Ice Warning 29.3F - 31F 32F 95 0% - - 99% 0 mhos 50 - None None - -
02/04/2016 20:50 Ice Warning 29.5F - 31F 32F 95 0% - - 99% 0 mhos 50 - None None - -
02/04/2016 20:49 Ice Warning 29.5F - 31F 32F 95 0% - - 99% 0 mhos 50 - None None - -
02/04/2016 20:39 Ice Warning 29.7F - 31F 32F 95 0% - - 99% 0 mhos 51 - None None - -
02/04/2016 20:35 Ice Warning 29.7F - 31F 32F 95 0% - - 99% 0 mhos 49 - None None - -
02/04/2016 20:29 Ice Warning 29.7F - 31F 32F 95 0% - - 99% 0 mhos 49 - None None - -
02/04/2016 20:20 Ice Warning 29.8F - 31F 32F 95 0% - - 99% 0 mhos 48 - None None - -
02/04/2016 20:19 Ice Warning 29.8F - 31F 32F 95 0% - - 99% 0 mhos 48 - None None - -
02/04/2016 20:09 Ice Warning 29.7F - 31F 32F 95 0% - - 99% 0 mhos 48 - None None - -
02/04/2016 20:05 Ice Warning 29.7F - 31F 32F 95 0% - - 99% 0 mhos 49 - None None - -
02/04/2016 19:59 Ice Warning 29.7F - 31F 32F 95 0% - - 99% 0 mhos 49 - None None - -
Change End Date:

Copyright © 1998-2015 Vaisala, Inc.
All Rights Reserved
Send comments about the data to:
SCAN Web ® is a registered trademark of Vaisala, Inc.
SCAN Web Version 6.0